This is the latest recevied weather packets stored in our database for station/object OH6HPS. If no packets are shown the sender has not sent any weather packets the latest 1 day(s).
| Time | Temp. | Humidity | Pressure | Rain* | Wind** | Luminosity | Snow |
|---|---|---|---|---|---|---|---|
| 1778028914 | -2.78° C | 91% | 1009.1 hPa | 0 mm | 0 m/s | 0 W/m² | - |
| 1778028314 | -2.78° C | 91% | 1009 hPa | 0 mm | 0 m/s | 0 W/m² | - |
| 1778027714 | -2.78° C | 91% | 1009 hPa | 0 mm | 0 m/s | 0 W/m² | - |
| 1778027113 | -2.78° C | 90% | 1008.9 hPa | 0 mm | 0 m/s | 0 W/m² | - |
| 1778026514 | -2.78° C | 90% | 1008.8 hPa | 0 mm | 0 m/s | 0 W/m² | - |
| 1778025913 | -2.22° C | 90% | 1008.7 hPa | 0 mm | 0 m/s | 0 W/m² | - |
| 1778025314 | -2.22° C | 89% | 1008.7 hPa | 0 mm | 0 m/s | 0 W/m² | - |
| 1778024714 | -2.22° C | 89% | 1008.7 hPa | 0 mm | 0 m/s | 0 W/m² | - |
| 1778024112 | -2.22° C | 90% | 1008.8 hPa | 0 mm | 0 m/s | 0 W/m² | - |
| 1778023513 | -2.22° C | 89% | 1008.6 hPa | 0 mm | 0 m/s | 0 W/m² | - |
| 1778022912 | -2.22° C | 88% | 1008.7 hPa | 0 mm | 0 m/s | 0 W/m² | - |
| 1778022311 | -1.67° C | 87% | 1008.6 hPa | 0 mm | 0 m/s | 0 W/m² | - |
| 1778021711 | -1.67° C | 87% | 1008.6 hPa | 0 mm | 0 m/s | 0 W/m² | - |
| 1778021111 | -1.67° C | 87% | 1008.6 hPa | 0 mm | 0 m/s | 0 W/m² | - |
| 1778020511 | -1.11° C | 86% | 1008.5 hPa | 0 mm | 0 m/s | 0 W/m² | - |
| 1778019912 | -1.11° C | 85% | 1008.5 hPa | 0 mm | 0 m/s | 0 W/m² | - |
| 1778019310 | -1.11° C | 85% | 1008.4 hPa | 0 mm | 0 m/s | 0 W/m² | - |
| 1778018710 | -0.56° C | 84% | 1008.4 hPa | 0 mm | 0 m/s | 0 W/m² | - |
| 1778018111 | -0.56° C | 83% | 1008.4 hPa | 0 mm | 0 m/s | 0 W/m² | - |
| 1778017509 | -0.56° C | 82% | 1008.4 hPa | 0 mm | 0 m/s | 0 W/m² | - |
| 1778016910 | 0° C | 81% | 1008.4 hPa | 0 mm | 0 m/s | 0 W/m² | - |
| 1778016309 | 0.56° C | 81% | 1008.3 hPa | 0 mm | 0 m/s | 0 W/m² | - |
| 1778015708 | 0.56° C | 81% | 1008.2 hPa | 0 mm | 0 m/s | 0 W/m² | - |
| 1778015109 | 1.11° C | 80% | 1008.1 hPa | 0 mm | 0 m/s | 0 W/m² | - |
| 1778014509 | 1.11° C | 80% | 1008.1 hPa | 0 mm | 0 m/s | 0 W/m² | - |
* Rain latest hour (hover to see other rain measurements)
** Current wind speed in m/s (hover to see current wind gust speed)